User: anonymous   Login
Location: Bangkok
(13.7500°N, 100.5170°E)
Time: 17:42:19
(UTC+07:00)
Language:

Cosmos 1802 Rocket - Orbit

View from above orbital plane
View from above orbital plane
View from above satellite
View from above satellite

Ground track
Ground track

The orbit data is extracted from the following two-line orbital elements,

1 17160U 86093B   14355.57540713  .00000029  00000-0  14055-4 0  2208
2 17160 082.9268 018.3329 0039823 159.0650 313.2588 13.74535365408047
Epoch (UTC): 21 December 2014 13:48:35
Eccentricity: 0.0039823
inclination: 82.9268°
perigee height: 954 km
apogee height: 1012 km
right ascension of ascending node: 18.3329°
argument of perigee: 159.0650°
revolutions per day: 13.74535365
mean anomaly at epoch: 313.2588°
orbit number at epoch: 40804

The dashed part of the orbit path shows where the satellite is in the earth's shadow,  

DLR